Time,TemperatureF,DewpointF,PressureIn,WindDirection,WindDirectionDegrees,WindSpeedMPH,WindSpeedGustMPH,Humidity,HourlyPrecipIn,Conditions,Clouds,dailyrainin,SoftwareType,DateUTC
2013-03-01 00:00:00,34.0,31.9,29.61,West,270,5.0,5.0,92,0.00,,,0.00,Wunderground v.1.15,2013-03-01 05:00:00,
2013-03-01 00:10:00,33.7,31.9,29.61,West,275,3.0,3.0,93,0.00,,,0.00,Wunderground v.1.15,2013-03-01 05:10:00,
2013-03-01 00:20:00,33.5,32.0,29.61,WNW,285,3.0,3.0,94,0.00,,,0.00,Wunderground v.1.15,2013-03-01 05:20:00,
2013-03-01 00:30:00,33.4,32.1,29.62,West,272,2.0,2.0,95,0.00,,,0.00,Wunderground v.1.15,2013-03-01 05:30:00,
2013-03-01 00:40:00,33.1,31.8,29.62,West,279,1.0,2.0,95,0.00,,,0.00,Wunderground v.1.15,2013-03-01 05:40:00,
2013-03-01 00:50:00,33.1,32.1,29.61,WNW,291,2.0,2.0,96,0.00,,,0.00,Wunderground v.1.15,2013-03-01 05:50:00,
2013-03-01 01:00:00,32.9,31.9,29.62,WNW,289,1.0,3.0,96,0.00,,,0.00,Wunderground v.1.15,2013-03-01 06:00:00,
2013-03-01 01:10:00,32.8,31.8,29.62,WNW,289,1.0,1.0,96,0.00,,,0.00,Wunderground v.1.15,2013-03-01 06:10:00,
2013-03-01 01:20:00,32.8,32.0,29.62,WNW,293,2.0,2.0,97,0.00,,,0.00,Wunderground v.1.15,2013-03-01 06:20:00,
2013-03-01 01:30:00,32.8,32.0,29.62,WNW,291,3.0,3.0,97,0.00,,,0.00,Wunderground v.1.15,2013-03-01 06:30:00,
2013-03-01 01:40:00,32.7,31.9,29.62,West,281,1.0,4.0,97,0.00,,,0.00,Wunderground v.1.15,2013-03-01 06:40:00,
2013-03-01 01:50:00,32.7,31.9,29.62,West,280,2.0,2.0,97,0.00,,,0.00,Wunderground v.1.15,2013-03-01 06:50:00,
2013-03-01 02:00:00,32.7,32.2,29.62,West,280,1.0,1.0,98,0.00,,,0.00,Wunderground v.1.15,2013-03-01 07:00:00,
2013-03-01 02:10:00,32.7,32.2,29.62,West,277,1.0,1.0,98,0.00,,,0.00,Wunderground v.1.15,2013-03-01 07:10:00,
2013-03-01 02:20:00,32.7,32.2,29.62,West,279,3.0,3.0,98,0.00,,,0.00,Wunderground v.1.15,2013-03-01 07:20:00,
2013-03-01 02:30:00,32.7,32.2,29.62,West,281,2.0,2.0,98,0.00,,,0.00,Wunderground v.1.15,2013-03-01 07:30:00,
2013-03-01 02:40:00,32.5,32.0,29.62,West,278,2.0,3.0,98,0.00,,,0.00,Wunderground v.1.15,2013-03-01 07:40:00,
2013-03-01 02:50:00,32.5,32.0,29.62,NNW,327,1.0,2.0,98,0.00,,,0.00,Wunderground v.1.15,2013-03-01 07:50:00,
2013-03-01 03:00:00,32.5,32.0,29.62,North,359,3.0,3.0,98,0.00,,,0.00,Wunderground v.1.15,2013-03-01 08:00:00,
2013-03-01 03:10:00,32.4,31.9,29.62,NW,316,5.0,5.0,98,0.00,,,0.00,Wunderground v.1.15,2013-03-01 08:10:00,
2013-03-01 03:20:00,32.4,31.9,29.62,WNW,298,5.0,5.0,98,0.00,,,0.00,Wunderground v.1.15,2013-03-01 08:20:00,
2013-03-01 03:30:00,32.4,31.9,29.62,WNW,289,4.0,5.0,98,0.00,,,0.00,Wunderground v.1.15,2013-03-01 08:30:00,
2013-03-01 03:40:00,32.4,31.6,29.62,NW,304,4.0,4.0,97,0.00,,,0.00,Wunderground v.1.15,2013-03-01 08:40:00,
2013-03-01 03:50:00,32.4,31.6,29.62,WNW,300,4.0,4.0,97,0.00,,,0.00,Wunderground v.1.15,2013-03-01 08:50:00,
2013-03-01 04:00:00,32.4,31.4,29.62,WNW,292,3.0,3.0,96,0.00,,,0.00,Wunderground v.1.15,2013-03-01 09:00:00,
2013-03-01 04:10:00,32.4,31.4,29.62,WNW,292,1.0,1.0,96,0.00,,,0.00,Wunderground v.1.15,2013-03-01 09:10:00,
2013-03-01 04:20:00,32.4,31.4,29.63,WNW,292,1.0,1.0,96,0.00,,,0.00,Wunderground v.1.15,2013-03-01 09:20:00,
2013-03-01 04:30:00,32.4,31.4,29.63,NW,307,1.0,4.0,96,0.00,,,0.00,Wunderground v.1.15,2013-03-01 09:30:00,
2013-03-01 04:40:00,32.4,31.4,29.63,WNW,301,3.0,3.0,96,0.00,,,0.00,Wunderground v.1.15,2013-03-01 09:40:00,
2013-03-01 04:50:00,32.4,31.4,29.63,NW,312,1.0,1.0,96,0.00,,,0.00,Wunderground v.1.15,2013-03-01 09:50:00,
2013-03-01 05:00:00,32.2,31.4,29.64,NW,312,0.0,2.0,97,0.00,,,0.00,Wunderground v.1.15,2013-03-01 10:00:00,
2013-03-01 05:10:00,32.1,31.3,29.64,West,261,3.0,3.0,97,0.00,,,0.00,Wunderground v.1.15,2013-03-01 10:10:00,
2013-03-01 05:20:00,31.9,31.1,29.65,West,272,3.0,4.0,97,0.00,,,0.00,Wunderground v.1.15,2013-03-01 10:20:00,
2013-03-01 05:30:00,31.9,30.9,29.65,West,281,4.0,4.0,96,0.00,,,0.00,Wunderground v.1.15,2013-03-01 10:30:00,
2013-03-01 05:40:00,31.9,30.9,29.65,West,270,4.0,4.0,96,0.00,,,0.00,Wunderground v.1.15,2013-03-01 10:40:00,
2013-03-01 05:50:00,31.8,30.8,29.65,WNW,293,4.0,4.0,96,0.00,,,0.00,Wunderground v.1.15,2013-03-01 10:50:00,
2013-03-01 06:00:00,31.8,30.8,29.66,West,279,3.0,3.0,96,0.00,,,0.00,Wunderground v.1.15,2013-03-01 11:00:00,
2013-03-01 06:10:00,31.6,30.6,29.66,WNW,300,4.0,6.0,96,0.00,,,0.00,Wunderground v.1.15,2013-03-01 11:10:00,
2013-03-01 06:20:00,31.6,30.3,29.66,WNW,289,4.0,4.0,95,0.00,,,0.00,Wunderground v.1.15,2013-03-01 11:20:00,
2013-03-01 06:30:00,31.6,30.1,29.67,West,279,3.0,3.0,94,0.00,,,0.00,Wunderground v.1.15,2013-03-01 11:30:00,
2013-03-01 06:40:00,31.6,30.1,29.67,WNW,289,3.0,3.0,94,0.00,,,0.00,Wunderground v.1.15,2013-03-01 11:40:00,
2013-03-01 06:50:00,31.5,30.2,29.67,West,262,3.0,3.0,95,0.00,,,0.00,Wunderground v.1.15,2013-03-01 11:50:00,
2013-03-01 07:00:00,31.5,30.2,29.67,WNW,301,3.0,3.0,95,0.00,,,0.00,Wunderground v.1.15,2013-03-01 12:00:00,
2013-03-01 07:10:00,31.3,30.3,29.67,West,279,3.0,3.0,96,0.00,,,0.00,Wunderground v.1.15,2013-03-01 12:10:00,
2013-03-01 07:20:00,31.3,30.0,29.68,West,268,3.0,3.0,95,0.00,,,0.00,Wunderground v.1.15,2013-03-01 12:20:00,
2013-03-01 07:30:00,31.2,29.7,29.68,NW,313,2.0,6.0,94,0.00,,,0.00,Wunderground v.1.15,2013-03-01 12:30:00,
2013-03-01 07:40:00,31.2,29.4,29.68,WNW,291,3.0,3.0,93,0.00,,,0.00,Wunderground v.1.15,2013-03-01 12:40:00,
2013-03-01 07:50:00,31.2,29.4,29.68,NW,315,3.0,3.0,93,0.00,,,0.00,Wunderground v.1.15,2013-03-01 12:50:00,
2013-03-01 08:00:00,31.2,29.4,29.68,SW,236,4.0,4.0,93,0.00,,,0.00,Wunderground v.1.15,2013-03-01 13:00:00,
2013-03-01 08:10:00,31.2,29.1,29.68,WNW,303,5.0,6.0,92,0.00,,,0.00,Wunderground v.1.15,2013-03-01 13:10:00,
2013-03-01 08:20:00,31.2,28.9,29.69,NW,316,4.0,6.0,91,0.00,,,0.00,Wunderground v.1.15,2013-03-01 13:20:00,
2013-03-01 08:30:00,31.2,28.9,29.69,WNW,283,5.0,5.0,91,0.00,,,0.00,Wunderground v.1.15,2013-03-01 13:30:00,
2013-03-01 08:40:00,31.3,29.2,29.69,NNW,328,3.0,5.0,92,0.00,,,0.00,Wunderground v.1.15,2013-03-01 13:40:00,
2013-03-01 08:50:00,31.2,28.9,29.69,NW,312,5.0,5.0,91,0.00,,,0.00,Wunderground v.1.15,2013-03-01 13:50:00,
2013-03-01 09:00:00,31.5,28.9,29.69,WNW,283,3.0,3.0,90,0.00,,,0.00,Wunderground v.1.15,2013-03-01 14:00:00,
2013-03-01 09:10:00,31.8,28.9,29.69,West,279,3.0,4.0,89,0.00,,,0.00,Wunderground v.1.15,2013-03-01 14:10:00,
2013-03-01 09:20:00,31.8,28.7,29.69,West,275,5.0,5.0,88,0.00,,,0.01,Wunderground v.1.15,2013-03-01 14:20:00,
2013-03-01 09:30:00,31.8,28.4,29.69,NW,312,4.0,4.0,87,0.00,,,0.01,Wunderground v.1.15,2013-03-01 14:30:00,
2013-03-01 09:40:00,31.9,28.5,29.69,NW,304,3.0,3.0,87,0.00,,,0.01,Wunderground v.1.15,2013-03-01 14:40:00,
2013-03-01 09:50:00,31.9,28.2,29.70,WNW,283,6.0,7.0,86,0.00,,,0.01,Wunderground v.1.15,2013-03-01 14:50:00,
2013-03-01 10:00:00,31.9,27.9,29.70,WNW,302,6.0,7.0,85,0.00,,,0.01,Wunderground v.1.15,2013-03-01 15:00:00,
2013-03-01 10:10:00,32.1,28.1,29.70,NW,318,4.0,6.0,85,0.00,,,0.01,Wunderground v.1.15,2013-03-01 15:10:00,
2013-03-01 10:20:00,32.1,27.8,29.70,WNW,291,5.0,6.0,84,0.00,,,0.01,Wunderground v.1.15,2013-03-01 15:20:00,
2013-03-01 10:30:00,32.4,27.5,29.71,NW,322,7.0,7.0,82,0.00,,,0.01,Wunderground v.1.15,2013-03-01 15:30:00,
2013-03-01 10:40:00,32.4,26.9,29.71,WNW,297,7.0,9.0,80,0.00,,,0.01,Wunderground v.1.15,2013-03-01 15:40:00,
2013-03-01 10:50:00,32.7,26.9,29.71,West,279,8.0,8.0,79,0.00,,,0.01,Wunderground v.1.15,2013-03-01 15:50:00,
2013-03-01 11:00:00,33.1,27.0,29.71,WSW,241,9.0,9.0,78,0.00,,,0.01,Wunderground v.1.15,2013-03-01 16:00:00,
2013-03-01 11:10:00,33.1,26.7,29.71,NW,308,8.0,8.0,77,0.00,,,0.01,Wunderground v.1.15,2013-03-01 16:10:00,
2013-03-01 11:20:00,33.2,27.1,29.72,West,274,6.0,7.0,78,0.00,,,0.01,Wunderground v.1.15,2013-03-01 16:20:00,
2013-03-01 11:30:00,33.5,27.1,29.72,NW,304,5.0,6.0,77,0.00,,,0.01,Wunderground v.1.15,2013-03-01 16:30:00,
2013-03-01 11:40:00,33.8,26.7,29.72,West,271,5.0,5.0,75,0.00,,,0.01,Wunderground v.1.15,2013-03-01 16:40:00,
2013-03-01 11:50:00,33.8,26.4,29.72,NNW,331,5.0,5.0,74,0.00,,,0.01,Wunderground v.1.15,2013-03-01 16:50:00,
2013-03-01 12:00:00,34.4,26.3,29.72,West,260,6.0,9.0,72,0.00,,,0.01,Wunderground v.1.15,2013-03-01 17:00:00,
2013-03-01 12:10:00,34.6,26.8,29.72,NW,311,5.0,6.0,73,0.00,,,0.01,Wunderground v.1.15,2013-03-01 17:10:00,
2013-03-01 12:20:00,34.9,26.8,29.72,WNW,285,3.0,3.0,72,0.00,,,0.01,Wunderground v.1.15,2013-03-01 17:20:00,
2013-03-01 12:30:00,35.0,26.5,29.71,NW,308,5.0,7.0,71,0.00,,,0.01,Wunderground v.1.15,2013-03-01 17:30:00,
2013-03-01 12:40:00,35.3,26.5,29.71,West,280,4.0,4.0,70,0.00,,,0.01,Wunderground v.1.15,2013-03-01 17:40:00,
2013-03-01 12:50:00,35.6,27.1,29.72,NW,311,4.0,12.0,71,0.00,,,0.01,Wunderground v.1.15,2013-03-01 17:50:00,
2013-03-01 13:00:00,35.6,26.4,29.71,West,266,6.0,8.0,69,0.00,,,0.01,Wunderground v.1.15,2013-03-01 18:00:00,
2013-03-01 13:10:00,35.8,26.6,29.71,West,270,5.0,5.0,69,0.00,,,0.01,Wunderground v.1.15,2013-03-01 18:10:00,
2013-03-01 13:20:00,35.6,26.8,29.71,NW,314,7.0,7.0,70,0.00,,,0.01,Wunderground v.1.15,2013-03-01 18:20:00,
2013-03-01 13:30:00,35.6,26.4,29.70,NW,320,4.0,7.0,69,0.00,,,0.01,Wunderground v.1.15,2013-03-01 18:30:00,
2013-03-01 13:40:00,35.9,26.7,29.70,West,268,4.0,11.0,69,0.00,,,0.01,Wunderground v.1.15,2013-03-01 18:40:00,
2013-03-01 13:50:00,35.6,26.4,29.70,West,268,5.0,5.0,69,0.00,,,0.01,Wunderground v.1.15,2013-03-01 18:50:00,
2013-03-01 14:00:00,35.6,27.1,29.70,West,266,2.0,3.0,71,0.00,,,0.01,Wunderground v.1.15,2013-03-01 19:00:00,
2013-03-01 14:10:00,35.3,26.1,29.70,WNW,297,6.0,6.0,69,0.00,,,0.01,Wunderground v.1.15,2013-03-01 19:10:00,
2013-03-01 14:20:00,35.3,26.8,29.70,West,266,6.0,8.0,71,0.00,,,0.01,Wunderground v.1.15,2013-03-01 19:20:00,
2013-03-01 14:30:00,35.6,27.1,29.70,NW,312,5.0,6.0,71,0.00,,,0.01,Wunderground v.1.15,2013-03-01 19:30:00,
2013-03-01 14:40:00,35.6,27.1,29.70,West,263,5.0,5.0,71,0.00,,,0.01,Wunderground v.1.15,2013-03-01 19:40:00,
2013-03-01 14:50:00,35.5,26.7,29.70,West,281,5.0,7.0,70,0.00,,,0.01,Wunderground v.1.15,2013-03-01 19:50:00,
2013-03-01 15:00:00,35.5,27.0,29.70,WNW,302,6.0,6.0,71,0.00,,,0.01,Wunderground v.1.15,2013-03-01 20:00:00,
2013-03-01 15:10:00,35.5,27.0,29.70,West,281,5.0,5.0,71,0.00,,,0.01,Wunderground v.1.15,2013-03-01 20:10:00,
2013-03-01 15:20:00,35.2,27.1,29.70,WNW,294,5.0,5.0,72,0.00,,,0.01,Wunderground v.1.15,2013-03-01 20:20:00,
2013-03-01 15:30:00,35.2,27.4,29.70,West,268,3.0,3.0,73,0.00,,,0.01,Wunderground v.1.15,2013-03-01 20:30:00,
2013-03-01 15:40:00,35.2,27.7,29.70,West,279,4.0,4.0,74,0.00,,,0.01,Wunderground v.1.15,2013-03-01 20:40:00,
2013-03-01 15:50:00,35.0,27.5,29.71,West,272,4.0,4.0,74,0.00,,,0.01,Wunderground v.1.15,2013-03-01 20:50:00,
2013-03-01 16:00:00,34.9,27.5,29.71,West,280,4.0,5.0,74,0.00,,,0.01,Wunderground v.1.15,2013-03-01 21:00:00,
2013-03-01 16:10:00,34.7,27.9,29.71,West,274,3.0,5.0,76,0.00,,,0.01,Wunderground v.1.15,2013-03-01 21:10:00,
2013-03-01 16:20:00,34.6,27.8,29.72,NW,316,4.0,7.0,76,0.00,,,0.01,Wunderground v.1.15,2013-03-01 21:20:00,
2013-03-01 16:30:00,34.1,28.3,29.72,West,279,5.0,5.0,79,0.00,,,0.01,Wunderground v.1.15,2013-03-01 21:30:00,
2013-03-01 16:40:00,33.7,28.2,29.72,West,274,4.0,4.0,80,0.00,,,0.01,Wunderground v.1.15,2013-03-01 21:40:00,
2013-03-01 16:50:00,33.4,28.5,29.73,West,261,4.0,4.0,82,0.00,,,0.01,Wunderground v.1.15,2013-03-01 21:50:00,
2013-03-01 17:00:00,33.1,27.9,29.73,WNW,286,4.0,7.0,81,0.00,,,0.01,Wunderground v.1.15,2013-03-01 22:00:00,
2013-03-01 17:10:00,32.9,28.0,29.73,West,271,6.0,6.0,82,0.00,,,0.01,Wunderground v.1.15,2013-03-01 22:10:00,
2013-03-01 17:20:00,32.7,27.8,29.74,West,274,5.0,6.0,82,0.00,,,0.01,Wunderground v.1.15,2013-03-01 22:20:00,
2013-03-01 17:30:00,32.4,27.8,29.75,West,269,6.0,6.0,83,0.00,,,0.01,Wunderground v.1.15,2013-03-01 22:30:00,
2013-03-01 17:40:00,32.2,27.9,29.75,West,269,6.0,6.0,84,0.00,,,0.01,Wunderground v.1.15,2013-03-01 22:40:00,
2013-03-01 17:50:00,31.8,27.5,29.75,WNW,282,8.0,8.0,84,0.00,,,0.01,Wunderground v.1.15,2013-03-01 22:50:00,
2013-03-01 18:00:00,31.5,27.2,29.75,NW,320,6.0,7.0,84,0.00,,,0.01,Wunderground v.1.15,2013-03-01 23:00:00,
2013-03-01 18:10:00,31.5,26.9,29.75,West,265,5.0,9.0,83,0.00,,,0.01,Wunderground v.1.15,2013-03-01 23:10:00,
2013-03-01 18:20:00,31.3,26.4,29.76,WNW,294,4.0,4.0,82,0.00,,,0.01,Wunderground v.1.15,2013-03-01 23:20:00,
2013-03-01 18:30:00,31.3,26.1,29.76,West,272,4.0,4.0,81,0.00,,,0.01,Wunderground v.1.15,2013-03-01 23:30:00,
2013-03-01 18:40:00,31.3,26.1,29.76,West,280,5.0,5.0,81,0.00,,,0.01,Wunderground v.1.15,2013-03-01 23:40:00,
2013-03-01 18:50:00,31.2,26.3,29.76,WNW,287,3.0,3.0,82,0.00,,,0.01,Wunderground v.1.15,2013-03-01 23:50:00,
2013-03-01 19:00:00,31.2,26.9,29.77,West,273,1.0,1.0,84,0.00,,,0.01,Wunderground v.1.15,2013-03-02 00:00:00,
2013-03-01 19:10:00,31.0,26.7,29.77,West,273,1.0,6.0,84,0.00,,,0.01,Wunderground v.1.15,2013-03-02 00:10:00,
2013-03-01 19:20:00,30.9,26.9,29.77,West,260,2.0,4.0,85,0.00,,,0.01,Wunderground v.1.15,2013-03-02 00:20:00,
2013-03-01 19:30:00,30.9,26.6,29.77,West,274,3.0,3.0,84,0.00,,,0.01,Wunderground v.1.15,2013-03-02 00:30:00,
2013-03-01 19:40:00,30.9,26.6,29.77,NNW,329,2.0,4.0,84,0.00,,,0.01,Wunderground v.1.15,2013-03-02 00:40:00,
2013-03-01 19:50:00,30.7,26.1,29.77,West,276,3.0,3.0,83,0.00,,,0.01,Wunderground v.1.15,2013-03-02 00:50:00,
2013-03-01 20:00:00,30.7,25.9,29.77,NW,311,2.0,3.0,82,0.00,,,0.01,Wunderground v.1.15,2013-03-02 01:00:00,
2013-03-01 20:10:00,30.6,25.8,29.77,West,269,4.0,5.0,82,0.00,,,0.01,Wunderground v.1.15,2013-03-02 01:10:00,
2013-03-01 20:20:00,30.4,25.9,29.77,WNW,292,3.0,6.0,83,0.00,,,0.01,Wunderground v.1.15,2013-03-02 01:20:00,
2013-03-01 20:30:00,30.3,25.8,29.78,WNW,285,2.0,2.0,83,0.00,,,0.01,Wunderground v.1.15,2013-03-02 01:30:00,
2013-03-01 20:40:00,30.1,25.8,29.78,WNW,285,1.0,1.0,84,0.00,,,0.01,Wunderground v.1.15,2013-03-02 01:40:00,
2013-03-01 20:50:00,30.1,26.1,29.78,WNW,285,0.0,3.0,85,0.00,,,0.01,Wunderground v.1.15,2013-03-02 01:50:00,
2013-03-01 21:00:00,30.1,26.1,29.78,WNW,283,1.0,1.0,85,0.00,,,0.01,Wunderground v.1.15,2013-03-02 02:00:00,
2013-03-01 21:10:00,30.1,26.1,29.78,WNW,283,1.0,1.0,85,0.00,,,0.01,Wunderground v.1.15,2013-03-02 02:10:00,
2013-03-01 21:20:00,30.1,26.1,29.78,WNW,283,1.0,1.0,85,0.00,,,0.01,Wunderground v.1.15,2013-03-02 02:20:00,
2013-03-01 21:30:00,30.1,26.1,29.78,WNW,287,2.0,2.0,85,0.00,,,0.01,Wunderground v.1.15,2013-03-02 02:30:00,
2013-03-01 21:40:00,30.1,26.1,29.78,WNW,287,0.0,2.0,85,0.00,,,0.01,Wunderground v.1.15,2013-03-02 02:40:00,
2013-03-01 21:50:00,30.1,26.4,29.78,WNW,287,1.0,1.0,86,0.00,,,0.01,Wunderground v.1.15,2013-03-02 02:50:00,
2013-03-01 22:00:00,30.1,26.4,29.78,WNW,287,0.0,2.0,86,0.00,,,0.01,Wunderground v.1.15,2013-03-02 03:00:00,
2013-03-01 22:10:00,30.1,26.4,29.78,West,279,1.0,4.0,86,0.00,,,0.01,Wunderground v.1.15,2013-03-02 03:10:00,
2013-03-01 22:20:00,30.1,26.4,29.77,WNW,285,2.0,2.0,86,0.00,,,0.01,Wunderground v.1.15,2013-03-02 03:20:00,
2013-03-01 22:30:00,30.1,26.7,29.77,WNW,285,0.0,2.0,87,0.00,,,0.01,Wunderground v.1.15,2013-03-02 03:30:00,
2013-03-01 22:40:00,30.1,26.7,29.77,WNW,285,1.0,1.0,87,0.00,,,0.01,Wunderground v.1.15,2013-03-02 03:40:00,
2013-03-01 22:50:00,30.1,26.7,29.77,WNW,285,1.0,3.0,87,0.00,,,0.01,Wunderground v.1.15,2013-03-02 03:50:00,
2013-03-01 23:00:00,30.1,26.7,29.77,West,279,2.0,2.0,87,0.00,,,0.01,Wunderground v.1.15,2013-03-02 04:00:00,
2013-03-01 23:10:00,30.1,27.0,29.77,West,274,2.0,2.0,88,0.00,,,0.01,Wunderground v.1.15,2013-03-02 04:10:00,
2013-03-01 23:20:00,30.1,27.0,29.77,WSW,256,1.0,3.0,88,0.00,,,0.01,Wunderground v.1.15,2013-03-02 04:20:00,
2013-03-01 23:30:00,30.0,27.2,29.77,WSW,256,2.0,2.0,89,0.00,,,0.01,Wunderground v.1.15,2013-03-02 04:30:00,
2013-03-01 23:40:00,30.0,27.2,29.77,WSW,256,1.0,1.0,89,0.00,,,0.01,Wunderground v.1.15,2013-03-02 04:40:00,
2013-03-01 23:50:00,30.0,27.2,29.77,WSW,249,1.0,7.0,89,0.00,,,0.01,Wunderground v.1.15,2013-03-02 04:50:00,